User: anonymous   Login
Location: Roanoke
(37.2710°N, 79.9420°W)
Time: 00:17:47
(UTC-04:00)
Language:

FENGYUN 3A - Orbit

View from above orbital plane
View from above orbital plane
View from above satellite
View from above satellite

Ground track
Ground track

The orbit data is extracted from the following two-line orbital elements,

1 32958U 08026A   15213.71297187  .00000014  00000-0  26408-4 0  9996
2 32958 098.4988 262.4186 0010588 106.0426 254.1911 14.19569147372085
Epoch (UTC): 01 August 2015 17:06:40
Eccentricity: 0.0010588
inclination: 98.4988°
perigee height: 819 km
apogee height: 834 km
right ascension of ascending node: 262.4186°
argument of perigee: 106.0426°
revolutions per day: 14.19569147
mean anomaly at epoch: 254.1911°
orbit number at epoch: 37208

The dashed part of the orbit path shows where the satellite is in the earth's shadow,  

DLR